Location: Gleizolles
(44.4833°N, 6.7667°E)
Time: 13:25:40
(UTC+00:00)

Vanguard 1 - Pass Details

Date: 03 July 2024
Orbit: 650 x 3826 km, 34.3° (Epoch: 15 July)

Event Time Altitude Azimuth Distance (km) Brightness Sun altitude
Rises 11:43:20 0° 267° (W) 5,724 14.0 68.4°
Reaches altitude 10° 11:48:09 10° 260° (W) 4,162 13.5 68.3°
Maximum altitude 11:56:47 34° 201° (SSW) 1,865 12.6 68.0°
Drops below altitude 10° 12:02:10 10° 137° (SE) 2,553 12.5 67.8°
Sets 12:04:25 0° 127° (SE) 3,286 12.9 67.7°
